EDT,Max TemperatureF,Mean TemperatureF,Min TemperatureF,Max Dew PointF,MeanDew PointF,Min DewpointF,Max Humidity, Mean Humidity, Min Humidity, Max Sea Level PressureIn, Mean Sea Level PressureIn, Min Sea Level PressureIn, Max VisibilityMiles, Mean VisibilityMiles, Min VisibilityMiles, Max Wind SpeedMPH, Mean Wind SpeedMPH, Max Gust SpeedMPH,PrecipitationIn, CloudCover, Events, WindDirDegrees
2013-6-1,82,75,68,70,64,59,94,70,51,30.08,29.99,29.91,10,10,3,21,6,41,0.55,3,Rain-Thunderstorm,197
2013-6-2,73,70,64,68,64,61,100,83,69,29.98,29.95,29.91,10,10,10,13,5,18,0.10,7,Rain-Thunderstorm,254
2013-6-3,75,68,60,64,58,54,100,74,47,30.06,30.00,29.95,10,10,10,10,3,9,0.00,6,,9
2013-6-4,78,66,55,59,54,52,94,65,39,30.11,30.07,30.03,10,10,10,8,3,,0.00,2,,66
2013-6-5,80,70,59,68,60,54,94,74,48,30.05,30.00,29.92,10,10,5,17,2,39,0.39,4,Rain-Thunderstorm,165
2013-6-6,78,71,64,64,63,61,94,77,57,29.94,29.85,29.79,10,10,10,14,5,20,0.00,6,,248
2013-6-7,77,70,64,64,61,57,94,74,50,29.90,29.81,29.78,10,10,7,12,4,17,0.00,6,,19
2013-6-8,80,70,60,63,58,50,100,68,34,30.08,29.98,29.89,10,10,10,14,2,18,0.00,5,,245
2013-6-9,78,68,59,68,63,57,100,88,61,30.11,30.06,29.97,10,10,7,12,2,17,0.65,5,Rain-Thunderstorm,140
2013-6-10,77,70,62,68,64,59,100,89,54,29.98,29.93,29.88,10,10,2,17,4,23,0.90,6,Rain-Thunderstorm,222
2013-6-11,80,70,60,68,62,59,100,77,48,30.07,30.02,29.97,10,7,0,9,2,,0.00,3,Fog,259
2013-6-12,89,78,66,72,68,64,100,72,46,30.06,29.99,29.90,10,10,10,14,4,20,0.00,0,,246
2013-6-13,80,71,62,70,65,55,94,69,54,29.97,29.86,29.77,10,10,3,17,10,26,0.59,5,Rain-Thunderstorm,282
2013-6-14,80,68,55,61,56,50,100,68,34,30.09,30.02,29.95,10,10,0,9,1,,0.00,1,,37
2013-6-15,82,70,57,63,59,54,100,70,39,30.16,30.10,30.04,10,9,0,9,1,,0.00,1,Fog,235
2013-6-16,82,72,62,68,64,61,100,76,51,30.12,30.07,30.02,10,10,10,17,3,23,0.05,2,Rain-Thunderstorm,253
2013-6-17,84,75,66,72,66,61,100,81,48,30.05,30.00,29.93,10,10,3,14,3,26,0.66,4,Rain-Thunderstorm,179
2013-6-18,78,71,64,66,63,55,100,83,54,30.02,29.94,29.91,10,10,10,13,3,29,0.22,6,Rain,51
2013-6-19,82,71,60,63,60,55,100,70,45,30.12,30.06,29.98,10,10,7,13,3,16,0.00,1,,41
2013-6-20,84,72,60,68,62,59,100,75,45,30.22,30.18,30.13,10,10,10,8,1,,0.00,2,,87
2013-6-21,84,74,64,68,64,61,100,75,45,30.27,30.22,30.17,10,10,10,10,2,,0.00,3,,221
2013-6-22,86,75,64,68,64,57,100,74,42,30.26,30.19,30.11,10,10,4,16,2,,0.00,2,Rain-Thunderstorm,215
2013-6-23,86,74,62,66,64,59,100,74,45,30.23,30.17,30.12,10,10,7,14,2,18,0.00,2,Thunderstorm,198
2013-6-24,86,75,64,70,65,63,100,74,45,30.22,30.16,30.10,10,10,10,13,3,20,0.00,1,,248
2013-6-25,87,76,66,72,68,64,100,78,46,30.16,30.10,30.02,10,10,7,12,3,,0.00,2,Thunderstorm,227
2013-6-26,87,79,71,72,68,64,94,71,46,30.05,29.97,29.84,10,10,10,17,5,24,0.00,3,Thunderstorm,226
2013-6-27,86,76,66,72,69,64,100,88,55,29.93,29.86,29.83,10,10,3,31,8,53,0.46,6,Rain-Thunderstorm,262
2013-6-28,82,75,68,70,67,61,100,79,51,29.84,29.76,29.68,10,9,2,12,3,18,0.00,4,Rain,262
2013-6-29,82,72,62,66,62,57,100,71,45,29.72,29.69,29.66,10,10,5,16,4,21,0.00,4,,248
2013-6-30,80,70,60,64,61,55,100,72,42,29.83,29.77,29.70,10,10,10,10,2,,0.01,3,,291